User: anonymous   Login
Location: Aiyekoto
(8.4333°N, 4.3667°E)
Time: 03:22:28
(UTC+00:00)
Language:

Iridium 4 Rocket - Orbit

View from above orbital plane
View from above orbital plane
View from above satellite
View from above satellite

Ground track
Ground track

The orbit data is extracted from the following two-line orbital elements,

1 24797U 97020F   20221.73682728 +.00000085 +00000-0 +11823-4 0  9999
2 24797 086.8950 292.6842 0227334 087.4299 028.0314 14.44183682223668
Epoch (UTC): 08 August 2020 17:41:01
Eccentricity: 0.0227334
inclination: 86.8950°
perigee height: 583 km
apogee height: 906 km
right ascension of ascending node: 292.6842°
argument of perigee: 87.4299°
revolutions per day: 14.44183682
mean anomaly at epoch: 28.0314°
orbit number at epoch: 22366

The dashed part of the orbit path shows where the satellite is in the earth's shadow,  

DLR